Hlavní strana
METAR-TAF:

METAR-TAF

Letiště :

Morristown, Tennessee, Spojené státy americké

zeměpisná šířka: 36-10-46N, zeměpisná délka: 083-22-32W, výška: 400 m

Aktuální stav počasí

Zpráva byla vytvořena před 26 minutami, v 03:00 UTC
Bezvětří
Teplota 2°C
Vlhkost vzduchu 64%
Tlak 1021 hPa
Viditelnost: 16.1 km
Skoro jasno ve výšce 3300 ft
Polojasno ve výšce 4000 ft
Polojasno ve výšce 4600 ft

METAR: KMOR 220300Z AUTO 00000KT 10SM FEW033 SCT040 SCT046 02/M04 A3016 RMK A01

Čas: 22:26 (03:26 UTC)


TAF: chybějící

Stav a předpovědi počasí z více než 4 000 letišť (zprávy METAR a TAF).

Červené a žluté tečky na mapě představují dostupné meteorologické stanice.

Když kurzor umístíte na tečku, zobrazí se název stanice.

Pak kliknutím zobrazíte stav a předpověď počasí.

Chcete-li změnit mapu, kliknutím na zelené tlačítko se znaménkem +mapu přiblížíte, kliknutím na zelené tlačítko se znaménkem – mapu oddálíte a kliknutím na zelené šipky přejdete na sousední mapy.


METAR-TAF: